Total_Precipitation_Accumulation
0.00 0.00 0.00 0.00 0.00 0.00 0.00 0.00 0.00 0.00 0.00 0.00 0.01 0.03 0.06 0.07 0.08 0.10 0.10 0.12 0.15 0.15 0.18 0.22 0.24 0.26 0.33 0.35 0.39 0.38 0.34 0.38 0.38 0.09 0.02 0.04 0.12 0.20 0.19 0.14 0.14 0.13 0.11
0.00 0.00 0.00 0.00 0.00 0.00 0.00 0.00 0.00 0.00 0.00 0.00 0.02 0.05 0.09 0.11 0.11 0.14 0.15 0.15 0.18 0.19 0.21 0.25 0.28 0.31 0.36 0.41 0.48 0.49 0.41 0.36 0.41 0.25 0.06 0.05 0.12 0.23 0.27 0.21 0.18 0.15 0.11
0.00 0.00 0.00 0.00 0.00 0.00 0.00 0.00 0.00 0.00 0.00 0.00 0.02 0.07 0.15 0.21 0.19 0.16 0.20 0.21 0.20 0.22 0.25 0.31 0.35 0.39 0.38 0.41 0.51 0.56 0.50 0.42 0.42 0.38 0.17 0.07 0.11 0.22 0.33 0.30 0.26 0.24 0.18
0.00 0.00 0.00 0.00 0.00 0.00 0.00 0.00 0.00 0.00 0.00 0.01 0.02 0.06 0.17 0.30 0.33 0.34 0.37 0.32 0.26 0.21 0.19 0.24 0.36 0.50 0.55 0.59 0.60 0.58 0.60 0.60 0.55 0.50 0.34 0.19 0.16 0.24 0.40 0.45 0.38 0.33 0.28
0.00 0.00 0.00 0.00 0.00 0.00 0.00 0.00 0.00 0.00 0.00 0.01 0.01 0.03 0.14 0.40 0.65 0.82 0.74 0.47 0.31 0.23 0.18 0.20 0.31 0.52 0.69 0.88 0.94 0.83 0.82 0.88 0.82 0.75 0.62 0.45 0.34 0.37 0.46 0.50 0.56 0.47 0.42
0.00 0.00 0.00 0.00 0.00 0.00 0.00 0.00 0.00 0.00 0.01 0.01 0.01 0.02 0.08 0.36 0.73 0.96 0.70 0.37 0.26 0.22 0.21 0.20 0.28 0.49 0.63 0.72 0.86 0.89 0.94 1.09 1.15 1.06 0.91 0.72 0.51 0.42 0.46 0.57 0.69 0.73 0.62
0.00 0.00 0.00 0.00 0.00 0.00 0.00 0.00 0.00 0.01 0.01 0.01 0.01 0.02 0.03 0.19 0.56 0.83 0.58 0.30 0.22 0.20 0.20 0.19 0.23 0.35 0.47 0.56 0.59 0.62 0.68 0.84 1.07 1.18 1.12 0.83 0.65 0.53 0.61 0.71 0.71 0.77 0.68
0.00 0.00 0.00 0.00 0.00 0.00 0.00 0.00 0.01 0.01 0.01 0.01 0.02 0.02 0.02 0.09 0.43 0.72 0.53 0.26 0.18 0.17 0.19 0.16 0.14 0.22 0.35 0.52 0.61 0.57 0.53 0.62 0.86 1.09 1.26 1.08 0.88 0.83 0.94 1.03 0.99 0.91 0.80
0.00 0.00 0.00 0.00 0.00 0.00 0.00 0.01 0.01 0.01 0.02 0.02 0.02 0.02 0.02 0.04 0.28 0.68 0.55 0.25 0.17 0.15 0.17 0.15 0.12 0.13 0.28 0.46 0.50 0.45 0.40 0.47 0.59 0.81 0.94 0.94 0.90 0.99 1.18 1.46 1.49 1.35 1.14
0.00 0.00 0.00 0.00 0.00 0.00 0.01 0.01 0.01 0.01 0.02 0.02 0.02 0.02 0.02 0.02 0.15 0.56 0.63 0.28 0.17 0.13 0.14 0.14 0.16 0.21 0.30 0.37 0.37 0.40 0.47 0.45 0.42 0.45 0.48 0.50 0.56 0.68 0.98 1.39 1.59 1.52 1.30
0.00 0.00 0.00 0.00 0.00 0.01 0.01 0.01 0.02 0.02 0.02 0.02 0.02 0.02 0.02 0.02 0.06 0.34 0.61 0.40 0.25 0.18 0.19 0.19 0.14 0.22 0.27 0.29 0.32 0.37 0.51 0.46 0.37 0.40 0.41 0.39 0.40 0.50 0.68 0.99 1.37 1.59 1.51
0.00 0.00 0.00 0.00 0.00 0.01 0.01 0.02 0.02 0.03 0.03 0.03 0.04 0.03 0.02 0.02 0.07 0.24 0.39 0.39 0.34 0.22 0.20 0.16 0.12 0.17 0.21 0.26 0.28 0.34 0.38 0.38 0.38 0.37 0.34 0.33 0.37 0.44 0.57 0.74 1.00 1.29 1.43
0.00 0.00 0.00 0.00 0.00 0.01 0.02 0.03 0.03 0.04 0.06 0.07 0.07 0.06 0.03 0.03 0.10 0.24 0.22 0.20 0.26 0.25 0.27 0.25 0.17 0.18 0.19 0.17 0.17 0.23 0.27 0.29 0.36 0.38 0.33 0.29 0.33 0.44 0.50 0.58 0.69 0.91 1.12
0.00 0.00 0.00 0.00 0.01 0.02 0.03 0.04 0.05 0.08 0.16 0.16 0.14 0.11 0.08 0.09 0.23 0.35 0.21 0.13 0.17 0.25 0.28 0.21 0.17 0.16 0.13 0.10 0.09 0.11 0.13 0.19 0.27 0.32 0.30 0.26 0.26 0.32 0.42 0.54 0.64 0.74 0.94
0.00 0.00 0.00 0.01 0.02 0.03 0.03 0.04 0.06 0.09 0.22 0.28 0.22 0.21 0.24 0.31 0.39 0.41 0.31 0.25 0.25 0.31 0.33 0.30 0.22 0.17 0.16 0.13 0.09 0.07 0.07 0.11 0.17 0.21 0.25 0.27 0.28 0.30 0.35 0.44 0.62 0.73 0.87
0.00 0.01 0.01 0.02 0.02 0.03 0.04 0.04 0.05 0.07 0.12 0.13 0.14 0.20 0.21 0.32 0.34 0.28 0.26 0.24 0.26 0.28 0.33 0.32 0.21 0.15 0.14 0.13 0.12 0.10 0.08 0.08 0.10 0.14 0.20 0.25 0.30 0.34 0.36 0.39 0.53 0.70 0.82
0.01 0.01 0.02 0.02 0.03 0.04 0.05 0.07 0.08 0.06 0.06 0.06 0.07 0.11 0.18 0.23 0.23 0.21 0.21 0.20 0.20 0.23 0.27 0.20 0.14 0.12 0.12 0.12 0.12 0.11 0.09 0.06 0.09 0.13 0.16 0.19 0.24 0.30 0.34 0.38 0.45 0.58 0.71
0.01 0.01 0.03 0.03 0.05 0.06 0.08 0.09 0.11 0.12 0.11 0.06 0.04 0.06 0.12 0.16 0.18 0.17 0.18 0.21 0.19 0.15 0.16 0.16 0.15 0.13 0.12 0.13 0.12 0.12 0.10 0.09 0.09 0.10 0.11 0.14 0.18 0.25 0.30 0.33 0.40 0.53 0.63
0.01 0.02 0.03 0.04 0.04 0.06 0.07 0.09 0.11 0.12 0.12 0.10 0.07 0.06 0.09 0.12 0.13 0.13 0.16 0.22 0.20 0.15 0.13 0.13 0.13 0.14 0.15 0.14 0.13 0.12 0.11 0.10 0.08 0.09 0.09 0.10 0.13 0.19 0.24 0.28 0.35 0.43 0.54
0.01 0.03 0.04 0.04 0.05 0.07 0.09 0.12 0.14 0.16 0.16 0.14 0.12 0.12 0.19 0.22 0.21 0.16 0.16 0.18 0.18 0.15 0.13 0.14 0.13 0.14 0.15 0.15 0.14 0.12 0.11 0.09 0.08 0.08 0.07 0.07 0.09 0.14 0.20 0.24 0.31 0.38 0.45
0.01 0.02 0.05 0.06 0.07 0.10 0.13 0.16 0.18 0.21 0.20 0.17 0.13 0.13 0.29 0.36 0.27 0.18 0.16 0.17 0.18 0.18 0.17 0.17 0.15 0.15 0.15 0.15 0.15 0.13 0.11 0.09 0.07 0.07 0.07 0.07 0.08 0.11 0.13 0.19 0.26 0.33 0.40
0.02 0.03 0.05 0.08 0.11 0.13 0.16 0.17 0.20 0.22 0.21 0.19 0.15 0.12 0.18 0.22 0.21 0.19 0.17 0.16 0.15 0.17 0.18 0.21 0.19 0.16 0.18 0.20 0.19 0.17 0.13 0.09 0.07 0.08 0.08 0.08 0.08 0.09 0.11 0.15 0.20 0.27 0.35
0.04 0.07 0.09 0.10 0.12 0.15 0.17 0.17 0.20 0.22 0.21 0.19 0.19 0.17 0.17 0.19 0.19 0.19 0.19 0.16 0.15 0.15 0.15 0.19 0.20 0.17 0.16 0.18 0.18 0.19 0.17 0.11 0.09 0.10 0.12 0.11 0.08 0.08 0.09 0.12 0.17 0.24 0.32
0.08 0.11 0.13 0.15 0.16 0.19 0.21 0.21 0.21 0.21 0.21 0.21 0.20 0.18 0.18 0.18 0.18 0.16 0.16 0.16 0.16 0.16 0.16 0.19 0.19 0.18 0.18 0.18 0.16 0.14 0.13 0.13 0.15 0.16 0.15 0.15 0.12 0.10 0.11 0.13 0.15 0.20 0.28
0.11 0.13 0.16 0.19 0.23 0.25 0.25 0.24 0.22 0.21 0.21 0.21 0.20 0.19 0.18 0.18 0.16 0.14 0.13 0.14 0.16 0.15 0.14 0.16 0.19 0.20 0.19 0.18 0.16 0.14 0.13 0.14 0.19 0.24 0.24 0.20 0.15 0.12 0.13 0.14 0.15 0.18 0.23
0.12 0.15 0.18 0.22 0.26 0.27 0.28 0.28 0.25 0.23 0.24 0.22 0.21 0.20 0.20 0.19 0.16 0.15 0.14 0.15 0.17 0.16 0.14 0.15 0.17 0.19 0.19 0.18 0.16 0.14 0.14 0.17 0.19 0.19 0.21 0.21 0.17 0.12 0.12 0.15 0.15 0.18 0.23